Location: Piotrkow Trybunalski
(51.4000°N, 19.6830°E)
Time: 05:47:08
(UTC+02:00)

A-11 Canister half - Pass Details

Date: 06 February 2023
Orbit: 1526 x 1682 km, 47.3° (Epoch: 25 March)

Event Time Altitude Azimuth Distance (km) Brightness Sun altitude
Rises 08:55:53 0° 276° (W) 4,683 11.1 12.4°
Reaches altitude 10° 08:58:56 10° 273° (W) 3,707 10.6 12.7°
Maximum altitude 09:08:05 62° 196° (SSW) 1,720 9.8 13.7°
Drops below altitude 10° 09:17:29 10° 119° (ESE) 3,798 12.7 14.7°
Sets 09:20:39 0° 116° (ESE) 4,804 12.8 15.0°
